Location: Grasslands National Park East Block
(49.0708°N, 106.5295°W)
Time: 20:35:57
(UTC-06:00)

SR - Pass Details

Date: 23 October 2019
Orbit: 574 x 882 km, 66.7° (Epoch: 18 November)

Event Time Altitude Azimuth Distance (km) Brightness Sun altitude
Exits shadow 05:12:30 - 334° (NNW) 2,616 ? -24.6°
Reaches altitude 10° 05:12:53 10° 336° (NNW) 2,501 ? -24.5°
Maximum altitude 05:17:50 28° 34° (NE) 1,605 ? -23.7°
Drops below altitude 10° 05:22:51 10° 92° (E) 2,541 ? -22.9°
Sets 05:25:44 0° 104° (ESE) 3,470 ? -22.4°
